Location: Unspecified
(48.2082°N, 0.0000°E)
Time: 10:43:25
(UTC+00:00)

S-56A Canister/Altair - Pass Details

Date: 23 June 2019
Orbit: 633 x 2499 km, 38.9° (Epoch: 17 August)

Event Time Altitude Azimuth Distance (km) Brightness Sun altitude
Rises 15:00:38 0° 223° (SW) 5,418 12.4 47.0°
Reaches altitude 10° 15:05:10 10° 214° (SW) 4,109 11.9 46.3°
Maximum altitude 15:13:27 28° 161° (SSE) 2,326 10.3 45.0°
Drops below altitude 10° 15:19:30 10° 105° (ESE) 2,932 10.2 44.0°
Sets 15:22:09 0° 93° (E) 3,663 10.6 43.6°
